When you browse on this site, cookies collect data to enhance your experience and personalize the content and advertising you see.
Visit our Privacy Policy to learn more. By continuing to use the site, you agree to this use of cookies and data.
  • In France
  • List of Countries
  • For 7 days
  • Water Temperature
  • Weather Map
  • Weather Widgets
  • user-avatar
    Login

    Hourly Weather Nottingham

    Today, 16 September, Monday

    Time Temperature Precipitation Wind Pressure Humidity
    00:00 +14°C° 0 mm 1 mps 761 mmHg 92%
    01:00 +14°C° 0.5 mm 1 mps 761 mmHg 93%
    02:00 +14°C° 0.5 mm 1 mps 760 mmHg 94%
    03:00 +14°C° 0.5 mm 1 mps 760 mmHg 95%
    04:00 +14°C° 0.1 mm 1 mps 760 mmHg 94%
    05:00 +14°C° 0.1 mm 1 mps 760 mmHg 94%
    06:00 +14°C° 0 mm 1 mps 760 mmHg 92%
    07:00 +14°C° 0 mm 2 mps 760 mmHg 88%
    08:00 +14°C° 0 mm 2 mps 760 mmHg 85%
    09:00 +14°C° 0 mm 2 mps 760 mmHg 82%
    10:00 +15°C° 0 mm 2 mps 761 mmHg 78%
    11:00 +16°C° 0 mm 2 mps 761 mmHg 74%
    12:00 +16°C° 0 mm 1 mps 761 mmHg 70%
    13:00 +17°C° 0 mm 2 mps 761 mmHg 68%
    14:00 +17°C° 0 mm 2 mps 761 mmHg 66%
    15:00 +18°C° 0 mm 2 mps 761 mmHg 64%
    16:00 +17°C° 0 mm 2 mps 761 mmHg 67%
    17:00 +16°C° 0 mm 2 mps 761 mmHg 71%
    18:00 +16°C° 0 mm 2 mps 761 mmHg 74%
    19:00 +15°C° 0 mm 2 mps 761 mmHg 76%
    20:00 +13°C° 0 mm 2 mps 762 mmHg 78%
    21:00 +12°C° 0 mm 2 mps 762 mmHg 81%
    22:00 +12°C° 0 mm 2 mps 762 mmHg 83%
    23:00 +10°C° 0 mm 2 mps 762 mmHg 84%

    Tomorrow, 17 September, Tuesday

    Time Temperature Precipitation Wind Pressure Humidity
    00:00 +10°C° 0 mm 2 mps 763 mmHg 86%
    01:00 +10°C° 0 mm 2 mps 762 mmHg 87%
    02:00 +9°C° 0 mm 2 mps 762 mmHg 88%
    03:00 +9°C° 0 mm 2 mps 762 mmHg 89%
    04:00 +9°C° 0 mm 2 mps 762 mmHg 89%
    05:00 +9°C° 0 mm 2 mps 763 mmHg 89%
    06:00 +8°C° 0 mm 2 mps 763 mmHg 89%
    07:00 +10°C° 0 mm 2 mps 763 mmHg 81%
    08:00 +12°C° 0 mm 2 mps 763 mmHg 74%
    09:00 +13°C° 0 mm 3 mps 764 mmHg 67%
    10:00 +14°C° 0 mm 3 mps 764 mmHg 63%
    11:00 +14°C° 0 mm 3 mps 764 mmHg 59%
    12:00 +16°C° 0 mm 3 mps 764 mmHg 55%
    13:00 +16°C° 0 mm 3 mps 764 mmHg 54%
    14:00 +16°C° 0 mm 3 mps 764 mmHg 53%
    15:00 +17°C° 0 mm 3 mps 764 mmHg 52%
    16:00 +14°C° 0 mm 3 mps 764 mmHg 56%
    17:00 +14°C° 0 mm 2 mps 764 mmHg 60%
    18:00 +13°C° 0 mm 2 mps 765 mmHg 64%
    19:00 +12°C° 0 mm 2 mps 765 mmHg 67%
    20:00 +10°C° 0 mm 2 mps 766 mmHg 70%
    21:00 +9°C° 0 mm 2 mps 766 mmHg 73%
    22:00 +9°C° 0 mm 1 mps 766 mmHg 75%
    23:00 +9°C° 0 mm 1 mps 766 mmHg 76%

    Day after tomorrow, 18 September, Wednesday

    Time Temperature Precipitation Wind Pressure Humidity
    00:00 +8°C° 0 mm 0 mps 766 mmHg 77%
    01:00 +7°C° 0 mm 0 mps 766 mmHg 78%
    02:00 +7°C° 0 mm 0 mps 766 mmHg 78%
    03:00 +7°C° 0 mm 0 mps 766 mmHg 78%
    04:00 +7°C° 0 mm 0 mps 766 mmHg 78%
    05:00 +8°C° 0 mm 1 mps 767 mmHg 78%
    06:00 +8°C° 0 mm 1 mps 767 mmHg 79%
    07:00 +9°C° 0 mm 1 mps 767 mmHg 74%
    08:00 +11°C° 0 mm 1 mps 767 mmHg 69%
    09:00 +13°C° 0 mm 2 mps 767 mmHg 64%
    10:00 +14°C° 0 mm 2 mps 767 mmHg 61%
    11:00 +15°C° 0 mm 2 mps 767 mmHg 58%
    12:00 +16°C° 0 mm 3 mps 767 mmHg 56%
    13:00 +17°C° 0 mm 3 mps 766 mmHg 56%
    14:00 +17°C° 0 mm 3 mps 766 mmHg 56%
    15:00 +18°C° 0 mm 3 mps 766 mmHg 57%
    16:00 +17°C° 0 mm 3 mps 766 mmHg 63%
    17:00 +16°C° 0 mm 2 mps 766 mmHg 69%
    18:00 +15°C° 0 mm 2 mps 766 mmHg 75%
    19:00 +14°C° 0 mm 2 mps 766 mmHg 77%
    20:00 +13°C° 0 mm 2 mps 766 mmHg 79%
    21:00 +12°C° 0 mm 2 mps 767 mmHg 82%
    22:00 +12°C° 0 mm 1 mps 767 mmHg 83%
    23:00 +12°C° 0 mm 1 mps 767 mmHg 84%

    19 September, Thursday

    Time Temperature Precipitation Wind Pressure Humidity
    00:00 +11°C° 0 mm 1 mps 767 mmHg 85%
    01:00 +11°C° 0 mm 1 mps 767 mmHg 86%
    02:00 +11°C° 0 mm 1 mps 767 mmHg 86%
    03:00 +11°C° 0 mm 1 mps 767 mmHg 86%
    04:00 +11°C° 0 mm 1 mps 767 mmHg 87%
    05:00 +11°C° 0 mm 1 mps 767 mmHg 87%
    06:00 +10°C° 0 mm 1 mps 767 mmHg 87%
    07:00 +11°C° 0 mm 0 mps 767 mmHg 82%
    08:00 +13°C° 0 mm 0 mps 767 mmHg 76%
    09:00 +15°C° 0 mm 0 mps 768 mmHg 71%
    10:00 +16°C° 0 mm 0 mps 768 mmHg 68%
    11:00 +17°C° 0 mm 0 mps 768 mmHg 64%
    12:00 +18°C° 0 mm 0 mps 768 mmHg 61%
    13:00 +19°C° 0 mm 0 mps 767 mmHg 59%
    14:00 +19°C° 0 mm 0 mps 767 mmHg 58%
    15:00 +19°C° 0 mm 0 mps 767 mmHg 57%
    16:00 +18°C° 0 mm 0 mps 767 mmHg 62%
    17:00 +17°C° 0 mm 0 mps 767 mmHg 66%
    18:00 +16°C° 0 mm 0 mps 767 mmHg 71%
    19:00 +16°C° 0 mm 1 mps 767 mmHg 74%
    20:00 +15°C° 0 mm 1 mps 767 mmHg 77%
    21:00 +15°C° 0 mm 1 mps 767 mmHg 80%
    22:00 +14°C° 0 mm 1 mps 767 mmHg 82%
    23:00 +14°C° 0 mm 1 mps 767 mmHg 84%

    20 September, Friday

    Time Temperature Precipitation Wind Pressure Humidity
    00:00 +13°C° 0 mm 1 mps 767 mmHg 87%
    01:00 +13°C° 0 mm 1 mps 767 mmHg 88%
    02:00 +13°C° 0 mm 1 mps 767 mmHg 89%
    03:00 +13°C° 0 mm 1 mps 767 mmHg 90%
    04:00 +12°C° 0 mm 1 mps 766 mmHg 90%
    05:00 +12°C° 0 mm 1 mps 766 mmHg 90%
    06:00 +12°C° 0 mm 1 mps 766 mmHg 90%
    07:00 +14°C° 0 mm 1 mps 766 mmHg 85%
    08:00 +15°C° 0 mm 1 mps 766 mmHg 79%
    09:00 +17°C° 0 mm 2 mps 766 mmHg 74%
    10:00 +18°C° 0 mm 2 mps 766 mmHg 70%
    11:00 +19°C° 0 mm 2 mps 766 mmHg 66%
    12:00 +20°C° 0 mm 3 mps 765 mmHg 61%
    13:00 +20°C° 0 mm 3 mps 765 mmHg 61%
    14:00 +21°C° 0 mm 3 mps 764 mmHg 60%
    15:00 +21°C° 0 mm 3 mps 764 mmHg 59%
    16:00 +20°C° 0 mm 3 mps 763 mmHg 64%
    17:00 +18°C° 0 mm 3 mps 763 mmHg 69%
    18:00 +17°C° 0 mm 3 mps 763 mmHg 73%
    19:00 +16°C° 0 mm 3 mps 763 mmHg 73%
    20:00 +14°C° 0 mm 3 mps 763 mmHg 73%
    21:00 +13°C° 0 mm 4 mps 763 mmHg 72%
    22:00 +12°C° 0 mm 3 mps 762 mmHg 74%
    23:00 +12°C° 0 mm 3 mps 762 mmHg 75%

    21 September, Saturday

    Time Temperature Precipitation Wind Pressure Humidity
    00:00 +11°C° 0 mm 3 mps 762 mmHg 77%
    01:00 +11°C° 0 mm 3 mps 761 mmHg 80%
    02:00 +11°C° 0 mm 3 mps 761 mmHg 83%
    03:00 +10°C° 0 mm 3 mps 760 mmHg 86%
    04:00 +10°C° 0 mm 3 mps 760 mmHg 86%
    05:00 +10°C° 0 mm 3 mps 759 mmHg 86%
    06:00 +10°C° 0 mm 3 mps 759 mmHg 87%
    07:00 +12°C° 0 mm 3 mps 759 mmHg 79%
    08:00 +13°C° 0 mm 4 mps 759 mmHg 71%
    09:00 +15°C° 0 mm 5 mps 759 mmHg 64%
    10:00 +16°C° 0 mm 5 mps 758 mmHg 59%
    11:00 +19°C° 0 mm 5 mps 757 mmHg 55%
    12:00 +20°C° 0 mm 5 mps 757 mmHg 51%
    13:00 +20°C° 0 mm 5 mps 756 mmHg 50%
    14:00 +21°C° 0 mm 5 mps 756 mmHg 48%
    15:00 +21°C° 0 mm 5 mps 755 mmHg 47%
    16:00 +20°C° 0 mm 4 mps 755 mmHg 53%
    17:00 +18°C° 0 mm 4 mps 755 mmHg 59%
    18:00 +16°C° 0 mm 3 mps 754 mmHg 64%
    19:00 +16°C° 0 mm 3 mps 754 mmHg 66%
    20:00 +14°C° 0 mm 3 mps 754 mmHg 67%
    21:00 +14°C° 0 mm 3 mps 754 mmHg 69%
    22:00 +15°C° 0 mm 2 mps 754 mmHg 70%
    23:00 +15°C° 0 mm 2 mps 754 mmHg 71%
    Show more